Regional Weather Roundup
Issued by NWS

Home | Current Version | Previous Version | Graphics & Text | Print | Product List | Glossary On
Versions: 1 2 3 4 5 6 7 8 9 10 11 12 13 14 15 16 17 18 19 20 21 22 23 24 25 26 27 28 29 30 31 32 33 34 35 36 37 38 39 40 41 42 43 44 45 46 47 48 49 50
220
ASUS43 KIND 220800
RWRIN

WEATHER ROUNDUP FOR INDIANA
NATIONAL WEATHER SERVICE INDIANAPOLIS IN
400 AM EDT TUE AUG 22 2017

NOTE: "FAIR" INDICATES FEW OR NO CLOUDS BELOW 12,000 FEET WITH NO
SIGNIFICANT WEATHER AND/OR OBSTRUCTIONS TO VISIBILITY.

* - STATION DOES NOT REPORT WEATHER SUCH AS PRECIPITATION OR FOG.

+ - STATION NOT QUALITY CONTROLLED BY THE NATIONAL WEATHER SERVICE.
    USE DATA WITH CAUTION...ESPECIALLY DEWPOINT AND RELATIVE
    HUMIDITY OBSERVATIONS.

INZ001>003-010>013-019-020-220900-
NORTHWEST INDIANA

CITY           SKY/WX    TMP DP  RH WIND       PRES   REMARKS
MICHIGAN CITY+ LGT RAIN  70  70 100 S13G23    29.88S
MONTICELLO +   RAIN      70  68  95 W7        29.94F
RENSSELAER +   DRIZZLE   70  64  83 S9        29.90F

$$

LMZ046-743>745-220900-
SOUTHERN LAKE MICHIGAN

STATION/POSITION TIME  TEMP    WIND        PRES    WAVE
                       AIR SEA DIR/SP/G            HT
                 (UTC) (F)     (DEG/KT/KT) (MB)    (FT)
BURNS HARBOR     0740   72     190/ 16/ 21 1011.9S
MICHIGAN CITY    0730   72     170/ 16/ 21   N/A
5NW MICH CITY    0750   74 74  200/ 19/ 27   N/A     3

$$

INZ004-005-014>016-021>024-220900-
NORTH CENTRAL INDIANA

CITY           SKY/WX    TMP DP  RH WIND       PRES   REMARKS
GOSHEN         LGT RAIN  71  68  90 SW9       29.94F FOG
PERU/GRISSOM   LGT RAIN  72  71  97 W12       29.96R
SOUTH BEND     LGT RAIN  70  70 100 S17G24    29.89F

$$

INZ006>009-017-018-025>027-220900-
NORTHEAST INDIANA

CITY           SKY/WX    TMP DP  RH WIND       PRES   REMARKS
FORT WAYNE     MOCLDY    72  69  90 SW8       29.93F

$$

INZ028-029-035-036-043>045-051>053-220900-
WEST CENTRAL INDIANA

CITY           SKY/WX    TMP DP  RH WIND       PRES   REMARKS
LAFAYETTE      LGT RAIN  71  69  93 W7        29.95S
TERRE HAUTE    PTCLDY    75  70  84 SW8       29.96R

$$

INZ030>032-037>040-046>048-054>057-064-065-220900-
CENTRAL INDIANA

CITY           SKY/WX    TMP DP  RH WIND       PRES   REMARKS
GREENWOOD *+   PTCLDY   N/A N/A N/A S6        29.98F
INDIANAPOLIS   MOCLDY    74  69  85 S8        29.95F
-EAGLE CREEK   MOCLDY    75  68  78 S6        29.95F
KOKOMO +       LGT RAIN  73  70  90 NW17      29.98R
MT COMFORT *+  PTCLDY    72  68  88 S6        29.98F
SHELBYVILLE    PTCLDY    74  68  81 S8        29.97F

$$

INZ033-034-041-042-049-050-058-059-220900-
EAST CENTRAL INDIANA

CITY           SKY/WX    TMP DP  RH WIND       PRES   REMARKS
MUNCIE         CLOUDY    77  68  73 SW7       29.96F
RICHMOND +     PTCLDY    70  68  94 S6        30.01S

$$

INZ060-061-067>069-081>083-085>088-220900-
SOUTHWEST INDIANA

CITY           SKY/WX    TMP DP  RH WIND       PRES   REMARKS
EVANSVILLE     CLEAR     75  72  90 SW7       29.98F
HUNTINGBURG +  CLOUDY    73  71  93 S5        29.99F

$$

INZ062-063-066-070>080-084-089>092-220900-
SOUTH CENTRAL AND SOUTHEAST INDIANA

CITY           SKY/WX    TMP DP  RH WIND       PRES   REMARKS
BLOOMINGTON    PTCLDY    75  69  81 S9        29.98F
MADISON *+     PTCLDY    73  68  83 S3        30.03F
SEYMOUR +      MOCLDY    73  68  83 CALM      29.99F

$$





USA.gov is the U.S. government's official web portal to all federal, state and local government web resources and services.